| time (UTC) | temp F | wind direction | speed knots | gust knots | rain 1hr in | rain 24hr in | rain mn in | humidity % | barometer mb |
| 20260901194532 | 69 | 217 | 0.0 | 6.1 | 0.00 | 0.01 | 0.00 | 37 | 1006.7 |
| 20260901193019 | 67 | 232 | 0.9 | 10.4 | 0.00 | 0.01 | 0.00 | 37 | 1006.8 |
| 20260901191532 | 64 | 346 | 0.0 | 9.6 | 0.00 | 0.01 | 0.00 | 44 | 1006.7 |
| 20260901190043 | 63 | 155 | 0.0 | 0.0 | 0.00 | 0.01 | 0.00 | 49 | 1007.1 |
| 20260901184524 | 63 | 120 | 0.0 | 0.0 | 0.00 | 0.01 | 0.00 | 49 | 1007.3 |
| 20260901183101 | 63 | 271 | 0.0 | 0.0 | 0.00 | 0.01 | 0.00 | 49 | 1007.3 |
| 20260901181552 | 65 | 258 | 0.0 | 0.0 | 0.00 | 0.01 | 0.00 | 47 | 1007.5 |
| 20260901180100 | 64 | 188 | 0.0 | 0.0 | 0.00 | 0.01 | 0.00 | 51 | 1007.6 |
| 20260901174510 | 64 | 355 | 0.0 | 0.0 | 0.00 | 0.01 | 0.00 | 47 | 1007.7 |
| 20260901173038 | 63 | 345 | 0.0 | 0.0 | 0.00 | 0.01 | 0.00 | 50 | 1007.9 |
| 20260901171542 | 63 | 175 | 0.0 | 7.8 | 0.00 | 0.01 | 0.00 | 52 | 1008.1 |
| 20260901170051 | 62 | 263 | 0.0 | 7.0 | 0.00 | 0.01 | 0.00 | 55 | 1008.1 |
| 20260901164600 | 61 | 173 | 0.0 | 0.9 | 0.00 | 0.01 | 0.00 | 59 | 1008.0 |
| 20260901163018 | 60 | 238 | 0.0 | 3.5 | 0.00 | 0.01 | 0.00 | 61 | 1008.0 |
| 20260901161543 | 58 | 136 | 0.0 | 0.0 | 0.00 | 0.01 | 0.00 | 69 | 1008.0 |
| 20260901154618 | 55 | 161 | 0.0 | 0.0 | 0.00 | 0.01 | 0.00 | 71 | 1007.9 |
| 20260901153129 | 55 | 161 | 0.0 | 0.0 | 0.00 | 0.01 | 0.00 | 73 | 1008.1 |
| 20260901151510 | 54 | 161 | 0.0 | 0.0 | 0.00 | 0.01 | 0.00 | 75 | 1008.1 |
| 20260901150030 | 54 | 176 | 0.0 | 0.0 | 0.00 | 0.01 | 0.00 | 74 | 1008.2 |
| 20260901144538 | 54 | 135 | 0.0 | 0.0 | 0.00 | 0.01 | 0.00 | 73 | 1008.2 |
| 20260901143044 | 53 | 251 | 0.0 | 0.0 | 0.00 | 0.01 | 0.00 | 74 | 1008.3 |
| 20260901141601 | 53 | 192 | 0.0 | 0.0 | 0.00 | 0.01 | 0.00 | 74 | 1008.1 |
| 20260901134606 | 53 | 195 | 0.0 | 0.0 | 0.00 | 0.01 | 0.00 | 75 | 1008.0 |
| 20260901133002 | 52 | 149 | 0.0 | 0.0 | 0.00 | 0.01 | 0.00 | 77 | 1007.9 |
| 20260901131518 | 52 | 149 | 0.0 | 0.0 | 0.00 | 0.01 | 0.00 | 78 | 1007.7 |
| 20260901130041 | 52 | 138 | 0.0 | 0.0 | 0.00 | 0.01 | 0.00 | 79 | 1007.5 |
| 20260901124548 | 52 | 175 | 0.0 | 0.0 | 0.00 | 0.01 | 0.00 | 79 | 1007.3 |
| 20260901123057 | 52 | 150 | 0.0 | 0.0 | 0.00 | 0.01 | 0.00 | 79 | 1007.0 |
| 20260901121501 | 52 | 155 | 0.0 | 0.0 | 0.00 | 0.01 | 0.00 | 77 | 1006.9 |
| 20260901120105 | 53 | 155 | 0.0 | 4.3 | 0.00 | 0.01 | 0.00 | 77 | 1006.6 |
| 20260901114533 | 52 | 144 | 0.0 | 0.0 | 0.00 | 0.01 | 0.00 | 78 | 1006.5 |
| 20260901113051 | 52 | 162 | 0.0 | 0.0 | 0.00 | 0.01 | 0.00 | 80 | 1006.6 |
| 20260901111539 | 52 | 162 | 0.0 | 0.0 | 0.00 | 0.01 | 0.00 | 79 | 1006.5 |
| 20260901110049 | 52 | 162 | 0.0 | 0.0 | 0.00 | 0.01 | 0.00 | 79 | 1006.7 |
| 20260901104541 | 52 | 165 | 0.0 | 0.0 | 0.00 | 0.01 | 0.00 | 80 | 1006.7 |
| 20260901103058 | 52 | 171 | 0.0 | 0.0 | 0.00 | 0.01 | 0.00 | 80 | 1006.8 |
| 20260901101543 | 52 | 171 | 0.0 | 0.0 | 0.00 | 0.01 | 0.00 | 79 | 1006.9 |
| 20260901100001 | 53 | 171 | 0.0 | 0.0 | 0.00 | 0.01 | 0.00 | 78 | 1007.0 |
| 20260901094515 | 53 | 171 | 0.0 | 0.0 | 0.00 | 0.01 | 0.00 | 78 | 1007.2 |
| 20260901093100 | 53 | 171 | 0.0 | 0.0 | 0.00 | 0.01 | 0.00 | 78 | 1007.2 |
| 20260901091615 | 53 | 171 | 0.0 | 0.0 | 0.00 | 0.01 | 0.00 | 77 | 1007.3 |
| 20260901090124 | 53 | 170 | 0.0 | 0.0 | 0.00 | 0.01 | 0.00 | 79 | 1007.2 |
| 20260901084608 | 52 | 179 | 0.0 | 0.0 | 0.00 | 0.01 | 0.00 | 79 | 1007.4 |
| 20260901083107 | 53 | 179 | 0.0 | 0.0 | 0.00 | 0.01 | 0.00 | 79 | 1007.3 |
| 20260901081558 | 53 | 179 | 0.0 | 0.0 | 0.00 | 0.01 | 0.00 | 79 | 1007.6 |
| 20260901080107 | 53 | 179 | 0.0 | 0.0 | 0.00 | 0.01 | 0.00 | 79 | 1007.8 |
| 20260901074605 | 53 | 179 | 0.0 | 0.0 | 0.00 | 0.01 | 0.00 | 78 | 1007.8 |
| 20260901073032 | 54 | 179 | 0.0 | 0.0 | 0.00 | 0.01 | 0.00 | 76 | 1008.1 |
| 20260901071539 | 54 | 179 | 0.0 | 0.0 | 0.00 | 0.01 | 0.00 | 75 | 1008.0 |
| 20260901070050 | 54 | 181 | 0.0 | 5.2 | 0.00 | 0.01 | 0.00 | 75 | 1008.0 |
| 20260901064530 | 54 | 167 | 0.0 | 2.6 | 0.00 | 0.01 | 0.00 | 77 | 1008.2 |
| 20260901063047 | 53 | 178 | 0.0 | 0.0 | 0.00 | 0.01 | 0.00 | 78 | 1008.1 |
| 20260901061541 | 53 | 178 | 0.0 | 0.0 | 0.00 | 0.01 | 0.00 | 79 | 1008.2 |
| 20260901060052 | 53 | 178 | 0.0 | 0.0 | 0.00 | 0.01 | 0.00 | 79 | 1008.3 |
| 20260901054539 | 54 | 178 | 0.0 | 3.5 | 0.00 | 0.01 | 0.01 | 74 | 1008.4 |
| 20260901053058 | 55 | 153 | 0.9 | 3.5 | 0.00 | 0.01 | 0.01 | 73 | 1008.0 |
| 20260901051551 | 55 | 169 | 0.9 | 8.7 | 0.00 | 0.01 | 0.01 | 73 | 1008.4 |
| 20260901050052 | 55 | 155 | 0.0 | 9.6 | 0.00 | 0.01 | 0.01 | 73 | 1008.5 |
| 20260901044603 | 54 | 146 | 0.0 | 3.5 | 0.00 | 0.04 | 0.01 | 74 | 1008.3 |
| 20260901043040 | 52 | 193 | 1.7 | 7.0 | 0.00 | 0.04 | 0.01 | 77 | 1008.2 |
| 20260901041535 | 52 | 168 | 0.0 | 0.9 | 0.00 | 0.04 | 0.01 | 83 | 1008.4 |
| 20260901040046 | 51 | 150 | 0.0 | 0.0 | 0.00 | 0.04 | 0.01 | 84 | 1008.2 |
| 20260901034549 | 52 | 150 | 0.0 | 1.7 | 0.00 | 0.14 | 0.01 | 82 | 1008.2 |
| 20260901033049 | 52 | 153 | 0.9 | 4.3 | 0.00 | 0.14 | 0.01 | 82 | 1008.4 |
| 20260901031556 | 52 | 113 | 0.0 | 3.5 | 0.00 | 0.14 | 0.01 | 84 | 1008.6 |
| 20260901030059 | 52 | 120 | 0.0 | 0.0 | 0.00 | 0.14 | 0.01 | 85 | 1009.0 |
| 20260901024611 | 52 | 120 | 0.0 | 2.6 | 0.00 | 0.14 | 0.01 | 85 | 1008.7 |
| 20260901023003 | 52 | 128 | 0.0 | 3.5 | 0.00 | 0.14 | 0.01 | 86 | 1008.8 |
| 20260901021513 | 52 | 88 | 0.0 | 0.0 | 0.01 | 0.14 | 0.01 | 86 | 1008.6 |
| 20260901020101 | 52 | 101 | 0.0 | 0.0 | 0.01 | 0.14 | 0.01 | 86 | 1009.0 |
| 20260901014609 | 53 | 144 | 0.0 | 0.0 | 0.01 | 0.14 | 0.01 | 84 | 1008.7 |
| 20260901013027 | 54 | 144 | 0.0 | 0.0 | 0.00 | 0.13 | 0.01 | 81 | 1009.5 |
| 20260901011511 | 58 | 295 | 0.0 | 7.8 | 0.00 | 0.13 | 0.00 | 67 | 1009.2 |
| 20260901010003 | 62 | 221 | 0.0 | 0.0 | 0.00 | 0.13 | 0.00 | 55 | 1008.2 |
| 20260901004516 | 63 | 148 | 0.0 | 5.2 | 0.00 | 0.13 | 0.00 | 53 | 1007.6 |
| 20260901003125 | 63 | 148 | 0.0 | 7.8 | 0.00 | 0.13 | 0.00 | 50 | 1007.3 |
| 20260901001605 | 63 | 138 | 0.0 | 0.0 | 0.00 | 0.13 | 0.00 | 50 | 1007.3 |
| 20260901000003 | 64 | 114 | 0.0 | 0.0 | 0.00 | 0.13 | 0.00 | 49 | 1007.4 |
| 20260831234508 | 64 | 152 | 0.0 | 0.0 | 0.00 | 0.13 | 0.00 | 47 | 1007.7 |
| 20260831233147 | 64 | 113 | 0.0 | 5.2 | 0.00 | 0.13 | 0.00 | 45 | 1007.7 |
| 20260831231526 | 65 | 153 | 0.0 | 0.0 | 0.00 | 0.13 | 0.00 | 45 | 1007.7 |
| 20260831230002 | 65 | 140 | 0.0 | 0.0 | 0.00 | 0.13 | 0.00 | 45 | 1007.8 |
| 20260831224505 | 66 | 155 | 0.0 | 0.9 | 0.00 | 0.13 | 0.00 | 43 | 1007.9 |
| 20260831223002 | 66 | 172 | 0.0 | 8.7 | 0.00 | 0.13 | 0.00 | 44 | 1008.1 |
| 20260831221516 | 65 | 146 | 0.0 | 4.3 | 0.00 | 0.13 | 0.00 | 46 | 1008.4 |
| 20260831220015 | 66 | 157 | 0.0 | 0.0 | 0.00 | 0.13 | 0.00 | 47 | 1008.8 |
| 20260831214551 | 66 | 170 | 0.0 | 3.5 | 0.00 | 0.13 | 0.00 | 44 | 1008.9 |
| 20260831213050 | 66 | 167 | 0.0 | 3.5 | 0.00 | 0.13 | 0.00 | 44 | 1009.0 |
| 20260831211505 | 67 | 168 | 3.5 | 7.8 | 0.00 | 0.13 | 0.00 | 42 | 1009.0 |
| 20260831210026 | 67 | 140 | 0.0 | 0.9 | 0.00 | 0.13 | 0.00 | 42 | 1009.0 |
| 20260831204504 | 66 | 276 | 0.0 | 0.0 | 0.00 | 0.13 | 0.00 | 43 | 1009.3 |
| 20260831203030 | 66 | 121 | 0.9 | 5.2 | 0.00 | 0.13 | 0.00 | 41 | 1009.7 |
| 20260831201534 | 66 | 148 | 1.7 | 3.5 | 0.00 | 0.13 | 0.00 | 42 | 1009.7 |
| 20260831200042 | 65 | 272 | 0.0 | 0.0 | 0.00 | 0.13 | 0.00 | 44 | 1010.0 |